Weather History for Wrangell, AK

Change the Weather History Date:

Wednesday, September 24, 2014

  Actual Average Record
Temperature  
Mean Temperature 52 °F -  
Max Temperature 55 °F 56 °F 65 °F (1976)
Min Temperature 48 °F 44 °F 30 °F (1972)
Degree Days  
Heating Degree Days 14    
Growing Degree Days 2 (Base 50)    
Moisture  
Dew Point 46 °F    
Average Humidity 83    
Maximum Humidity 88    
Minimum Humidity 72    
Precipitation  
Precipitation 0.23 in - - ()
Sea Level Pressure  
Sea Level Pressure 29.58 in    
Wind  
Wind Speed 3 mph (NE)    
Max Wind Speed 12 mph    
Max Gust Speed -    
Visibility 10 miles    
Events      
Averages and records for this station are not official NWS values.
T = Trace of Precipitation, MM = Missing Value Source: NWS Daily Summary

Daily Weather History Graph

Daily Weather History Graph

Search for Another Location

Airport:

Trip Planner

Search our weather history database for the weather conditions in past years. The results will help you decide how hot, cold, wet, or windy it might be!

Date:

Astronomy

Sep. 24, 2014 Rise Set
Actual Time 6:39 AM AKDT 6:42 PM AKDT
Civil Twilight 6:01 AM AKDT 7:20 PM AKDT
Nautical Twilight 5:16 AM AKDT 8:04 PM AKDT
Astronomical Twilight 4:29 AM AKDT 8:51 PM AKDT
Moon 7:16 AM AKDT (9/24) 6:43 PM AKDT (9/24)
Length of Visible Light 13h 18m
Length of Day
12h 03m
New Moon, 0% of the Moon is Illuminated
Sep 24
New Moon
Oct 1
First Quarter
Oct 8
Full
Oct 15
Last Quarter
Oct 23
New

Hourly Weather History & Observations

Time (AKDT) Temp. Dew Point Humidity Pressure Visibility Wind Dir Wind Speed Gust Speed Precip Events Conditions
12:16 AM 48.2 °F 42.8 °F 82% 29.52 in 10.0 mi Calm Calm - N/A   Overcast
12:36 AM 48.2 °F 42.8 °F 82% 29.51 in 10.0 mi Calm Calm - N/A   Overcast
12:56 AM 50.0 °F 42.8 °F 76% 29.51 in 10.0 mi NNW 4.6 mph - N/A   Scattered Clouds
1:16 AM 48.2 °F 42.8 °F 82% 29.50 in 10.0 mi NW 8.1 mph - N/A   Partly Cloudy
1:36 AM 48.2 °F 42.8 °F 82% 29.51 in 10.0 mi NNW 5.8 mph - N/A   Partly Cloudy
1:56 AM 48.2 °F 42.8 °F 82% 29.51 in 10.0 mi NNE 4.6 mph - N/A   Clear
2:16 AM 50.0 °F 42.8 °F 76% 29.51 in 10.0 mi North 4.6 mph - N/A   Mostly Cloudy
2:36 AM 50.0 °F 42.8 °F 76% 29.51 in 10.0 mi SW 3.5 mph - N/A   Mostly Cloudy
2:56 AM 48.2 °F 42.8 °F 82% 29.51 in 10.0 mi Calm Calm - N/A   Scattered Clouds
3:16 AM 48.2 °F 44.6 °F 87% 29.51 in 10.0 mi SE 5.8 mph - N/A   Mostly Cloudy
3:36 AM 48.2 °F 44.6 °F 87% 29.51 in 10.0 mi ESE 6.9 mph - N/A   Overcast
3:56 AM 48.2 °F 44.6 °F 87% 29.51 in 10.0 mi SE 5.8 mph - N/A   Overcast
4:16 AM 48.2 °F 44.6 °F 87% 29.51 in 10.0 mi Calm Calm - N/A   Overcast
4:36 AM 48.2 °F 44.6 °F 87% 29.51 in 10.0 mi Calm Calm - N/A   Overcast
4:56 AM 50.0 °F 44.6 °F 82% 29.51 in 10.0 mi Calm Calm - N/A   Overcast
5:16 AM 48.2 °F 42.8 °F 82% 29.51 in 10.0 mi Calm Calm - 0.01 in   Overcast
5:36 AM 48.2 °F 44.6 °F 87% 29.51 in 10.0 mi SE 4.6 mph - 0.01 in   Overcast
5:56 AM 48.2 °F 44.6 °F 87% 29.52 in 9.0 mi ESE 4.6 mph - 0.01 in   Overcast
6:16 AM 48.2 °F 44.6 °F 87% 29.52 in 9.0 mi SE 3.5 mph - 0.01 in   Overcast
6:36 AM 48.2 °F 44.6 °F 87% 29.52 in 8.0 mi ESE 4.6 mph - 0.01 in   Overcast
6:56 AM 48.2 °F 44.6 °F 87% 29.53 in 8.0 mi East 4.6 mph - 0.02 in   Overcast
7:16 AM 48.2 °F 44.6 °F 87% 29.54 in 8.0 mi East 3.5 mph - 0.01 in   Overcast
7:36 AM 48.2 °F 44.6 °F 87% 29.54 in 8.0 mi East 3.5 mph - 0.02 in   Overcast
7:56 AM 48.2 °F 44.6 °F 87% 29.54 in 7.0 mi East 3.5 mph - 0.05 in   Overcast
8:16 AM 48.2 °F 44.6 °F 87% 29.54 in 7.0 mi Calm Calm - 0.01 in   Overcast
8:36 AM 48.2 °F 44.6 °F 87% 29.55 in 8.0 mi WNW 4.6 mph - 0.01 in   Overcast
8:56 AM 48.2 °F 44.6 °F 87% 29.55 in 8.0 mi WNW 3.5 mph - 0.01 in   Overcast
9:16 AM 48.2 °F 44.6 °F 87% 29.56 in 8.0 mi Calm Calm - 0.01 in   Overcast
9:36 AM 48.2 °F 44.6 °F 87% 29.56 in 8.0 mi Calm Calm - 0.01 in   Overcast
9:56 AM 48.2 °F 44.6 °F 87% 29.56 in 8.0 mi Calm Calm - 0.01 in   Overcast
10:16 AM 50.0 °F 44.6 °F 82% 29.56 in 8.0 mi North 3.5 mph - 0.01 in   Overcast
10:36 AM 48.2 °F 44.6 °F 87% 29.56 in 8.0 mi ENE 3.5 mph - 0.01 in   Overcast
10:56 AM 50.0 °F 46.4 °F 87% 29.56 in 10.0 mi Calm Calm - 0.01 in   Overcast
11:16 AM 51.8 °F 48.2 °F 88% 29.56 in 10.0 mi North 4.6 mph - 0.01 in   Overcast
11:36 AM 51.8 °F 48.2 °F 88% 29.57 in 10.0 mi NW 3.5 mph - 0.01 in   Overcast
11:56 AM 53.6 °F 48.2 °F 82% 29.57 in 10.0 mi NNW 3.5 mph - 0.01 in   Mostly Cloudy
12:16 PM 53.6 °F 48.2 °F 82% 29.57 in 10.0 mi North 3.5 mph - N/A   Mostly Cloudy
12:36 PM 51.8 °F 46.4 °F 82% 29.58 in 10.0 mi NW 6.9 mph - N/A   Mostly Cloudy
12:56 PM 51.8 °F 46.4 °F 82% 29.58 in 10.0 mi Calm Calm - N/A   Mostly Cloudy
1:16 PM 51.8 °F 46.4 °F 82% 29.58 in 10.0 mi NW 3.5 mph - N/A   Mostly Cloudy
1:36 PM 51.8 °F 46.4 °F 82% 29.58 in 10.0 mi NW 6.9 mph - N/A   Mostly Cloudy
1:56 PM 53.6 °F 46.4 °F 77% 29.57 in 10.0 mi North 4.6 mph - N/A   Mostly Cloudy
2:16 PM 53.6 °F 46.4 °F 77% 29.57 in 10.0 mi North 3.5 mph - N/A   Mostly Cloudy
2:36 PM 53.6 °F 46.4 °F 77% 29.57 in 10.0 mi WNW 5.8 mph - N/A   Mostly Cloudy
2:56 PM 53.6 °F 46.4 °F 77% 29.58 in 10.0 mi West 4.6 mph - N/A   Mostly Cloudy
3:16 PM 55.4 °F 46.4 °F 72% 29.58 in 10.0 mi WNW 3.5 mph - N/A   Mostly Cloudy
3:36 PM 53.6 °F 46.4 °F 77% 29.58 in 10.0 mi Calm Calm - N/A   Mostly Cloudy
3:56 PM 53.6 °F 46.4 °F 77% 29.59 in 10.0 mi Calm Calm - N/A   Mostly Cloudy
4:16 PM 53.6 °F 46.4 °F 77% 29.59 in 10.0 mi Calm Calm - N/A   Mostly Cloudy
4:36 PM 53.6 °F 46.4 °F 77% 29.59 in 10.0 mi Calm Calm - N/A   Mostly Cloudy
4:56 PM 53.6 °F 46.4 °F 77% 29.60 in 10.0 mi Calm Calm - N/A   Mostly Cloudy
5:16 PM 53.6 °F 46.4 °F 77% 29.60 in 10.0 mi Calm Calm - N/A   Mostly Cloudy
5:36 PM 53.6 °F 46.4 °F 77% 29.61 in 10.0 mi Calm Calm - N/A   Mostly Cloudy
5:56 PM 53.6 °F 46.4 °F 77% 29.63 in 10.0 mi SSW 4.6 mph - N/A   Mostly Cloudy
6:16 PM 55.4 °F 48.2 °F 77% 29.64 in 10.0 mi NE 3.5 mph - N/A   Mostly Cloudy
6:36 PM 53.6 °F 48.2 °F 82% 29.64 in 10.0 mi East 9.2 mph - N/A   Mostly Cloudy
6:56 PM 53.6 °F 48.2 °F 82% 29.65 in 10.0 mi East 11.5 mph - 0.01 in   Mostly Cloudy
7:16 PM 53.6 °F 48.2 °F 82% 29.65 in 10.0 mi ESE 11.5 mph - N/A   Mostly Cloudy
7:36 PM 53.6 °F 48.2 °F 82% 29.66 in 10.0 mi SE 10.4 mph - 0.02 in   Mostly Cloudy
7:56 PM 53.6 °F 48.2 °F 82% 29.66 in 10.0 mi East 5.8 mph - 0.02 in   Overcast
8:16 PM 51.8 °F 46.4 °F 82% 29.66 in 10.0 mi Calm Calm - 0.01 in   Overcast
8:36 PM 53.6 °F 48.2 °F 82% 29.66 in 10.0 mi SE 5.8 mph - 0.01 in   Overcast
8:56 PM 53.6 °F 48.2 °F 82% 29.66 in 10.0 mi SE 6.9 mph - 0.02 in   Overcast
9:16 PM 51.8 °F 48.2 °F 88% 29.67 in 10.0 mi ESE 9.2 mph - 0.01 in   Overcast
9:36 PM 51.8 °F 48.2 °F 88% 29.67 in 10.0 mi SE 6.9 mph - 0.02 in   Overcast
9:56 PM 51.8 °F 48.2 °F 88% 29.67 in 10.0 mi ESE 6.9 mph - 0.03 in   Overcast
10:16 PM 51.8 °F 48.2 °F 88% 29.67 in 10.0 mi NE 4.6 mph - N/A   Overcast
10:36 PM 51.8 °F 46.4 °F 82% 29.68 in 10.0 mi Calm Calm - N/A   Overcast
10:56 PM 51.8 °F 46.4 °F 82% 29.68 in 10.0 mi Calm Calm - N/A   Overcast
11:16 PM 51.8 °F 46.4 °F 82% 29.69 in 10.0 mi Calm Calm - 0.01 in   Mostly Cloudy
11:36 PM 51.8 °F 46.4 °F 82% 29.69 in 10.0 mi Calm Calm - 0.02 in   Mostly Cloudy
11:56 PM 51.8 °F 46.4 °F 82% 29.70 in 10.0 mi NNW 4.6 mph - 0.03 in   Overcast